Regional Weather Roundup
Issued by NWS Midland/Odessa, TX

Skip options and go directly to product.
Home | Oldest Version | Next Version | Current Version | All | Text Only | Save Text | Print | Product List | Glossary On

Skip product version selection by date and time.   
163
ASUS44 KMAF 201602
RWRMAF
MIDLAND AREA WEATHER ROUNDUP
NATIONAL WEATHER SERVICE MIDLAND TX
1000 AM CST THU NOV 20 2014

...IN SOUTHWEST TEXAS AND SOUTHEAST NEW MEXICO...

CITY           SKY/WX    TMP DP  RH WIND       PRES   REMARKS
ALPINE         SUNNY     60  33  35 SW9       30.19S
ANDREWS        FAIR      51  31  45 SW8       30.05S
ARTESIA        NOT AVBL
BIG SPRING     SUNNY     56  42  58 S15       30.09S
CARLSBAD       SUNNY     49  23  36 N3        30.05R
DRYDEN           N/A     53  42  66 CALM      30.10R
FORT STOCKTON  SUNNY     63  36  36 SW14      30.07R
GUAD PASS      NOT AVBL
HOBBS          SUNNY     46  23  39 CALM      30.05S
MARFA          SUNNY     52  36  54 SE3       30.17S
MIDLAND AIRPK  SUNNY     53  37  52 SW8       30.07S
MIDLAND INTL   SUNNY     54  37  52 S9        30.06S
ODESSA         SUNNY     54  35  48 SW8       30.07R
PECOS          SUNNY     50  33  51 CALM      30.07R
PRESIDIO       FAIR      53  38  56 CALM      30.14R
SEMINOLE       SUNNY     51  29  43 SW7       30.06S
SNYDER         SUNNY     50  43  76 SW13      30.07R
WINK           SUNNY     52  32  46 S5        30.05R
$$
...OTHER STATIONS IN TEXAS...

CITY           SKY/WX    TMP DP  RH WIND       PRES   REMARKS
ABILENE        MOSUNNY   53  46  77 SW16      30.07F
AMARILLO       PTSUNNY   38  27  64 S3        30.01S
AUSTIN         PTSUNNY   59  53  80 SE3       30.16R
BROWNSVILLE    CLOUDY    71  67  87 SE16      30.15R
CORPUS CHRISTI LGT RAIN  65  61  87 CALM      30.15S
DALLAS FTW     PTSUNNY   58  47  66 S8        30.12S
DEL RIO        FOG       52  51  97 S8        30.13R VSB 1/4
EL PASO        SUNNY     45  21  38 N3        30.13R
HOUSTON INT    PTSUNNY   68  57  68 S6        30.19S
LUBBOCK        MOSUNNY   51  26  37 SW7       30.02R
SAN ANGELO     SUNNY     59  48  67 S15       30.08S
SAN ANTONIO    CLOUDY    60  54  80 SE6       30.16R
WACO           SUNNY     60  50  69 S12       30.14S
WICHITA FALLS  NOT AVBL
$$
...OTHER LOCATIONS IN NEW MEXICO...

CITY           SKY/WX    TMP DP  RH WIND       PRES   REMARKS
ALAMAGORDO     SUNNY     41  14  33 CALM      30.14S
ALBUQUERQUE    MOSUNNY   37  11  34 CALM      30.16R
CANNON AFB     SUNNY     49  16  26 NW12      30.00R
CLOVIS         SUNNY     48  19  32 NW13      30.02
HOLLOMAN AFB   SUNNY     38  16  40 SE2       30.13R
ROSWELL        SUNNY     42  27  55 NE3       30.05R
RUIDOSO        SUNNY     46   5  18 NW10      30.15R
SANTA FE       SUNNY     36  16  44 N10       30.13R WCI  28
TRUTH OR CONSE SUNNY     43  15  32 NE6       30.14R WCI  39
TUCUMCARI      SUNNY     45  22  40 NW6       30.00R
$$

USA.gov is the U.S. government's official web portal to all federal, state and local government web resources and services.